www.pogodaiklimat.ru

Погода и климат >> Архив погоды >> Норвегия >> Fedje


ПОГОДА в Fedje

  • Прогноз погоды в Fedje
  • Монитор погоды в Fedje
  • Климат города

АРХИВ ПОГОДЫ в Fedje

Время (UTC), дата Ветер
(напр.,м/с)
 
Видим.   Явления Облачность Т
(С)
Тd
(С)
f
(%)
Тe
(С)
Тes
(С)
Комфортность P
(гПа)
Po
(гПа)
Тmin
(С)
Tmax
(С)
R
(мм)
R24
(мм)
S
(см)
23 19.05 Ю 8
{10}
н/о н/о +10.0 +6.4 78 +6 +6 1022.0 1019.7
22 19.05 Ю 7
{9}
н/о н/о +10.1 +6.5 78 +6 +6 1021.9 1019.6
00 20.05 ЮВ 9
{11}
н/о н/о +9.6 +5.0 73 +5 +5 1021.4 1019.1
01 20.05 Ю 9
{11}
н/о н/о +9.8 +3.1 63 +6 +6 1021.4 1019.1
02 20.05 Ю 12
{15}
н/о н/о +10.2 +2.1 57 +6 +6 1020.8 1018.5
03 20.05 Ю 12
{16}
н/о н/о +10.7 +1.5 53 +7 +7 1021.1 1018.8
05 20.05 Ю 15
{18}
н/о н/о +11.2 +1.5 51 +7 +7 1020.9 1018.6
04 20.05 Ю 13
{17}
н/о н/о +10.9 +1.2 51 +7 +7 1020.9 1018.6
06 20.05 Ю 15
{19}
н/о н/о +11.4 +2.2 53 +7 +7 1021.3 1019.0 +9.6 +12.0
07 20.05 Ю 15
{20}
н/о н/о +12.0 +2.7 53 +8 +8 1021.5 1019.2
08 20.05 Ю 16
{22}
н/о н/о +12.6 +2.5 50 +9 +9 1021.5 1019.2
09 20.05 Ю 16
{21}
н/о н/о +13.1 +2.4 48 +9 +9 1021.8 1019.5
11 20.05 Ю 16
{22}
н/о н/о +13.4 +3.5 51 +10 +10 1021.7 1019.4
10 20.05 Ю 15
{22}
н/о н/о +13.3 +3.7 52 +10 +10 1021.9 1019.6
12 20.05 Ю 15
{23}
н/о н/о +12.9 +4.6 57 +9 +9 1022.1 1019.8
13 20.05 Ю 14
{21}
н/о н/о +12.5 +5.9 64 +9 +9 1022.4 1020.1
14 20.05 Ю 13
{17}
н/о н/о +12.0 +7.7 75 +8 +8 1022.6 1020.3
15 20.05 Ю 11
{19}
н/о н/о +11.2 +8.3 82 +7 +7 1022.9 1020.6
17 20.05 Ю 14
{19}
н/о н/о +12.1 +6.8 70 +8 +8 1022.0 1019.7
16 20.05 Ю 13
{16}
н/о н/о +11.0 +8.1 82 +6 +6 1022.5 1020.2
18 20.05 Ю 13
{21}
н/о н/о +11.2 +7.1 76 +7 +7 1022.3 1020.0 +10.8 +13.5
19 20.05 Ю 13
{17}
н/о н/о +11.1 +7.0 76 +7 +7 1022.8 1020.5
20 20.05 Ю 12
{16}
н/о н/о +11.3 +7.2 76 +7 +7 1023.0 1020.7
21 20.05 Ю 11
{16}
н/о н/о +11.0 +6.8 75 +7 +7 1023.0 1020.7
23 20.05 Ю 12
{15}
н/о н/о +11.1 +6.9 75 +7 +7 1022.9 1020.6
22 20.05 Ю 11
{14}
н/о н/о +11.4 +6.3 71 +7 +7 1023.0 1020.7
00 21.05 Ю 12
{17}
н/о н/о +10.8 +7.7 81 +6 +6 1023.0 1020.7
01 21.05 Ю 10
{16}
н/о н/о +10.1 +7.9 86 +6 +6 1023.3 1021.0
02 21.05 Ю 10
{14}
н/о н/о +10.0 +8.1 88 +5 +5 1023.5 1021.2
03 21.05 Ю 9
{15}
н/о н/о +9.9 +8.3 90 +5 +5 1023.8 1021.5
05 21.05 Ю 10 н/о н/о +11.2 +7.7 79 +7 +7 1023.7 1021.4
04 21.05 Ю 10 н/о н/о +10.6 +8.4 86 +6 +6 1023.6 1021.3
06 21.05 Ю 13
{16}
н/о н/о +12.4 +5.8 64 +9 +9 1023.6 1021.3 +9.8
07 21.05 Ю 10 н/о н/о +12.5 +5.9 64 +9 +9 1023.7 1021.4
08 21.05 Ю 8 н/о н/о +13.4 +6.1 61 +11 +11 1023.7 1021.4
09 21.05 Ю 9 н/о н/о +14.3 +5.7 56 +12 +12 1023.8 1021.5
11 21.05 Ю 8 н/о н/о +13.2 +7.2 67 +11 +11 1023.6 1021.3
10 21.05 Ю 9 н/о н/о +14.8 +5.1 52 +13 +13 1023.6 1021.3
12 21.05 Ю 10
{15}
н/о н/о +13.4 +7.6 68 +10 +10 1023.6 1021.3
13 21.05 Ю 9
{11}
н/о н/о +13.1 +8.0 71 +10 +10 1023.3 1021.0
14 21.05 Ю 7
{10}
н/о н/о +13.4 +8.3 71 +11 +11 1022.9 1020.6
15 21.05 ЮВ 7
{9}
н/о н/о +13.5 +7.9 69 +11 +11 1022.6 1020.3
17 21.05 Ю 7
{11}
н/о н/о +14.1 +7.2 63 +12 +12 1021.9 1019.6
16 21.05 Ю 8
{11}
н/о н/о +14.7 +7.0 60 +13 +13 1022.0 1019.7
18 21.05 Ю 8
{11}
н/о н/о +13.6 +6.2 61 +11 +11 1021.8 1019.5 +12.3 +15.0
19 21.05 Ю 9
{11}
н/о н/о +13.1 +3.8 53 +10 +10 1022.1 1019.8
20 21.05 Ю 8
{11}
н/о н/о +12.3 +3.8 56 +9 +9 1022.6 1020.3
21 21.05 Ю 7
{9}
н/о н/о +11.9 +4.4 60 +9 +9 1022.8 1020.5
23 21.05 ЮВ 5
{7}
н/о н/о +10.5 +5.9 73 +8 +8 1022.7 1020.4
22 21.05 Ю 6
{8}
н/о н/о +11.3 +5.6 68 +8 +8 1022.8 1020.5
00 22.05 ЮВ 5
{11}
н/о н/о +10.3 +6.1 75 +7 +7 1022.5 1020.2
01 22.05 ЮВ 3
{5}
н/о н/о +10.0 +6.5 79 +8 +8 1022.6 1020.3
02 22.05 н/о
03 22.05 ЮЗ 3
{4}
н/о н/о +10.2 +7.1 81 +8 +8 1022.6 1020.3
05 22.05 С 6 н/о н/о +9.5 +8.1 91 +6 +6 1022.8 1020.5
04 22.05 СЗ 3 н/о н/о +9.6 +7.9 89 +7 +7 1022.9 1020.6
06 22.05 С 5
{8}
н/о н/о +10.0 +8.1 88 +7 +7 1023.1 1020.8 +9.5
07 22.05 С 6
{9}
н/о н/о +10.8 +7.9 82 +8 +8 1022.9 1020.6
08 22.05 С 6
{9}
н/о н/о +11.5 +7.6 77 +9 +9 1022.6 1020.3
09 22.05 С 6
{8}
н/о н/о +12.2 +6.9 70 +10 +10 1022.6 1020.3
11 22.05 СЗ 7
{9}
н/о н/о +11.9 +8.0 77 +9 +9 1022.2 1019.9
10 22.05 С 5
{9}
н/о н/о +12.8 +8.1 73 +11 +11 1022.4 1020.1
12 22.05 С 7
{9}
н/о н/о +13.0 +7.0 67 +10 +10 1022.3 1020.0
13 22.05 С 7
{10}
н/о н/о +13.3 +6.9 65 +11 +11 1022.0 1019.7
14 22.05 С 9
{12}
н/о н/о +12.0 +7.5 74 +9 +9 1021.6 1019.3
15 22.05 С 7
{12}
н/о н/о +12.4 +7.7 73 +10 +10 1021.4 1019.1
17 22.05 С 8
{12}
н/о н/о +11.5 +7.4 76 +8 +8 1021.1 1018.8
16 22.05 С 6
{9}
н/о н/о +13.1 +8.0 71 +11 +11 1021.2 1018.9
18 22.05 С 5
{12}
н/о н/о +12.5 +7.8 73 +10 +10 1020.8 1018.5 +10.0 +13.9
19 22.05 С 6
{7}
н/о н/о +11.0 +7.5 79 +8 +8 1020.8 1018.5
20 22.05 С 4
{7}
н/о н/о +10.4 +7.5 82 +8 +8 1021.0 1018.7
21 22.05 С 3
{6}
н/о н/о +10.0 +7.6 85 +8 +8 1021.1 1018.8
23 22.05 СЗ 3
{4}
н/о н/о +9.7 +8.1 90 +7 +7 1021.5 1019.2
22 22.05
{3}
н/о н/о +9.4 +7.5 88 1021.1 1018.8
00 23.05 С 2
{7}
н/о н/о +8.8 +7.4 91 +7 +7 1021.6 1019.3
01 23.05 В 3
{4}
н/о н/о +9.6 +8.5 93 +7 +7 1021.7 1019.4
02 23.05 ЮВ 5
{6}
н/о н/о +10.0 +8.9 93 +7 +7 1021.6 1019.3
03 23.05 ЮВ 6
{8}
н/о н/о +10.0 +8.9 93 +6 +6 1022.1 1019.8
05 23.05 Ю 4 н/о н/о +10.0 +8.6 91 +7 +7 1022.9 1020.6
04 23.05 Ю 4 н/о н/о +9.7 +8.5 92 +7 +7 1022.3 1020.0
06 23.05 Ю 5
{8}
н/о н/о +10.6 +8.9 89 +8 +8 1023.4 1021.1 +8.7
07 23.05 Ю 5 н/о н/о +10.8 +8.6 86 +8 +8 1023.9 1021.6
08 23.05 Ю 6 н/о н/о +10.3 +8.1 86 +7 +7 1024.5 1022.2
09 23.05 Ю 8 н/о н/о +9.3 +7.7 90 +5 +5 1024.9 1022.6
11 23.05 Ю 8
{9}
н/о н/о +9.9 +7.8 87 +6 +6 1025.7 1023.4
10 23.05 Ю 6
{8}
н/о н/о +9.7 +8.0 89 +6 +6 1025.5 1023.2
12 23.05 Ю 8
{11}
н/о н/о +10.2 +7.5 83 +6 +6 1026.2 1023.9
13 23.05 Ю 8
{10}
н/о н/о +10.7 +7.4 80 +7 +7 1026.6 1024.3
14 23.05 Ю 8
{10}
н/о н/о +10.9 +7.2 78 +7 +7 1026.8 1024.5
15 23.05 Ю 7
{10}
н/о н/о +10.6 +7.1 79 +7 +7 1026.9 1024.6
17 23.05 Ю 8
{10}
н/о н/о +10.3 +7.0 80 +6 +6 1027.1 1024.8
16 23.05 Ю 7
{9}
н/о н/о +10.9 +7.4 79 +8 +8 1027.1 1024.8
18 23.05 Ю 8
{10}
н/о н/о +9.8 +7.1 83 +6 +6 1027.3 1025.0 +9.3 +11.3
19 23.05 Ю 7
{10}
н/о н/о +9.6 +7.2 85 +6 +6 1027.4 1025.1
20 23.05 Ю 8
{10}
н/о н/о +9.4 +7.4 87 +5 +5 1028.0 1025.7
21 23.05 Ю 7
{9}
н/о н/о +9.1 +7.2 88 +5 +5 1028.4 1026.1
23 23.05 Ю 7
{9}
н/о н/о +8.9 +7.2 89 +5 +5 1028.8 1026.5
22 23.05 Ю 7
{10}
н/о н/о +9.1 +7.4 89 +5 +5 1028.6 1026.3
00 24.05 Ю 7
{10}
н/о н/о +8.8 +7.3 90 +5 +5 1029.1 1026.7
01 24.05 Ю 7
{9}
н/о н/о +8.7 +7.2 90 +4 +4 1029.3 1026.9
02 24.05 Ю 7
{9}
н/о н/о +8.7 +7.2 90 +4 +4 1029.4 1027.0
03 24.05 ЮЗ 6
{8}
н/о н/о +8.6 +7.1 90 +5 +5 1029.4 1027.0
05 24.05 Ю 5 н/о н/о +8.6 +7.1 90 +5 +5 1029.7 1027.3
04 24.05 Ю 5
{8}
н/о н/о +8.7 +7.3 91 +5 +5 1029.5 1027.1
06 24.05 ЮЗ 5
{9}
н/о н/о +8.5 +7.1 91 +5 +5 1029.9 1027.5 +8.4
07 24.05 Ю 5 н/о н/о +8.6 +7.1 90 +5 +5 1030.0 1027.6
08 24.05 Ю 5 н/о н/о +8.8 +7.3 90 +5 +5 1030.4 1028.0
09 24.05 Ю 5 н/о н/о +9.0 +7.1 88 +6 +6 1030.5 1028.1
11 24.05 Ю 4
{6}
н/о н/о +9.7 +6.8 82 +7 +7 1030.5 1028.2
10 24.05 ЮЗ 4 н/о н/о +9.2 +6.8 85 +6 +6 1030.5 1028.1
12 24.05 ЮЗ 4
{7}
н/о н/о +9.8 +6.3 79 +7 +7 1030.2 1027.9
13 24.05 ЮЗ 3
{5}
н/о н/о +10.5 +6.7 77 +9 +9 1029.9 1027.6
14 24.05 З 2
{4}
н/о н/о +10.5 +6.7 77 +9 +9 1029.6 1027.3
15 24.05 СЗ 2
{4}
н/о н/о +11.2 +7.1 76 +10 +10 1029.3 1027.0
17 24.05 СЗ 3
{3}
н/о н/о +10.5 +7.0 79 +9 +9 1028.6 1026.3
16 24.05 СЗ 3
{4}
н/о н/о +11.0 +7.3 78 +9 +9 1029.0 1026.7
18 24.05 СЗ 3
{5}
н/о н/о +10.4 +6.9 79 +8 +8 1028.3 1026.0 +8.5 +12.0
19 24.05 СЗ 2
{4}
н/о н/о +10.9 +7.6 80 +10 +10 1028.4 1026.1
20 24.05 С 2
{3}
н/о н/о +10.5 +7.4 81 +9 +9 1028.2 1025.9
21 24.05 С 2
{4}
н/о н/о +9.4 +7.4 87 +8 +8 1028.2 1025.9
23 24.05 СВ 3
{4}
н/о н/о +9.3 +7.1 86 +7 +7 1028.2 1025.9
22 24.05 С 2
{3}
н/о н/о +9.2 +7.5 89 +7 +7 1028.3 1026.0
00 25.05 В 4
{4}
н/о н/о +9.8 +7.4 85 +7 +7 1028.0 1025.7
01 25.05 В 2
{3}
н/о н/о +9.6 +7.0 84 +8 +8 1028.1 1025.8
02 25.05 В 3
{3}
н/о н/о +10.2 +6.6 78 +8 +8 1028.1 1025.8
03 25.05 ЮВ 2
{3}
н/о н/о +10.1 +7.0 81 +9 +9 1028.2 1025.9
05 25.05 В 2 н/о н/о +11.6 +8.8 83 +10 +10 1028.4 1026.1
04 25.05 В 2
{3}
н/о н/о +10.4 +7.1 80 +9 +9 1028.3 1026.0
06 25.05 В 2
{4}
н/о н/о +13.2 +9.3 77 +13 +13 1028.7 1026.4 +9.0
07 25.05 В 2 н/о н/о +14.9 +8.6 66 +15 +15 1029.2 1026.9
08 25.05 ЮВ 2 н/о н/о +16.5 +8.7 60 +17 +17 1029.5 1027.2
09 25.05 З 1 н/о н/о +14.8 +9.0 68 +15 +15 1029.7 1027.4
11 25.05 СЗ 5
{7}
н/о н/о +14.5 +7.8 64 +13 +13 1030.0 1027.7
10 25.05 СЗ 4 н/о н/о +13.9 +8.9 72 +12 +12 1029.8 1027.5
12 25.05 СЗ 6
{9}
н/о н/о +14.5 +7.6 63 +13 +13 1030.3 1028.0
13 25.05 СЗ 5
{9}
н/о н/о +17.0 +5.6 47 +16 +16 1030.3 1028.0
14 25.05 С 6
{9}
н/о н/о +16.0 +3.8 44 +15 +15 1030.1 1027.8
15 25.05 С 7
{10}
н/о н/о +14.9 +5.4 53 +13 +13 1030.0 1027.7
17 25.05 С 7
{8}
н/о н/о +15.1 +5.9 54 +13 +13 1030.0 1027.7
16 25.05 С 6
{10}
н/о н/о +15.9 +7.7 58 +15 +15 1030.0 1027.7
18 25.05 С 7
{10}
н/о н/о +14.2 +5.8 57 +12 +12 1030.0 1027.7 +13.1 +17.9
19 25.05 С 7
{11}
н/о н/о +13.5 +6.4 62 +11 +11 1029.9 1027.6
20 25.05 С 7
{10}
н/о н/о +11.6 +7.7 77 +8 +8 1030.2 1027.9
21 25.05
{11}
н/о н/о +10.8 +7.5 80 1030.3 1028.0
23 25.05 С 7
{9}
н/о н/о +10.2 +8.1 87 +6 +6 1030.6 1028.3
22 25.05 С 7
{11}
н/о н/о +10.4 +7.8 84 +7 +7 1030.6 1028.3
00 26.05 С 6
{11}
н/о н/о +10.1 +8.4 89 +7 +7 1030.4 1028.1
01 26.05 С 5
{8}
н/о н/о +10.0 +8.3 89 +7 +7 1030.1 1027.8
02 26.05 С 6
{9}
н/о н/о +10.2 +8.5 89 +7 +7 1030.0 1027.7
03 26.05 С 9
{13}
н/о н/о +10.0 +8.4 90 +6 +6 1030.4 1028.1
05 26.05 С 7 н/о н/о +11.4 +8.8 84 +8 +8 1030.3 1028.0
04 26.05
{13}
н/о н/о +10.1 +8.5 90 1030.2 1027.9
06 26.05 С 7
{13}
н/о н/о +11.5 +8.5 82 +8 +8 1030.3 1028.0 +9.9
07 26.05 С 5 н/о н/о +13.8 +9.3 74 +12 +12 1030.3 1028.0
08 26.05 С 7 н/о н/о +13.2 +8.9 75 +11 +11 1030.5 1028.2
09 26.05 С 8 н/о н/о +13.8 +8.6 71 +11 +11 1030.6 1028.3
11 26.05 С 8 н/о н/о +13.5 +8.8 73 +11 +11 1030.8 1028.5
10 26.05 С 8 н/о н/о +13.8 +8.2 69 +11 +11 1030.7 1028.4
12 26.05 С 8
{12}
н/о н/о +14.6 +8.8 68 +12 +12 1030.6 1028.3
13 26.05 С 7
{11}
н/о н/о +14.1 +8.9 71 +12 +12 1030.3 1028.0
14 26.05 С 8
{11}
н/о н/о +14.3 +8.9 70 +12 +12 1029.9 1027.6
15 26.05 С 9
{12}
н/о н/о +13.8 +9.1 73 +11 +11 1029.5 1027.2
17 26.05 С 7
{11}
н/о н/о +13.5 +9.0 74 +11 +11 1028.8 1026.5
16 26.05 СЗ 9
{12}
н/о н/о +13.7 +8.8 72 +11 +11 1029.1 1026.8
18 26.05 С 7
{12}
н/о н/о +13.4 +9.3 76 +11 +11 1028.4 1026.1 +11.5 +15.2
19 26.05 С 6
{10}
н/о н/о +13.1 +9.2 77 +11 +11 1028.2 1025.9
20 26.05 С 6
{9}
н/о н/о +12.6 +9.1 79 +10 +10 1028.2 1025.9
21 26.05
{9}
н/о н/о +12.9 +9.0 77 1028.0 1025.7
22 26.05 С 4
{8}
н/о н/о +11.9 +8.9 82 +10 +10 1027.9 1025.6

 

Местоположение метеостанции Fedje (Норвегия): широта 60.78 долгота 4.72 высота над уровнем моря 19 м.

В архиве по умолчанию представлена погода в Fedje за последнюю неделю. Архивные данные за месяц целиком и за предыдущие месяцы, начиная с января 2011 года, Вы можете получить, выбрав интересующий диапазон дат из раскрывающегося списка и нажав кнопку "Ввод!".


*Определитесь, кто Вы:
робот инопланетянин человек

Внимание! Время в таблицах - всемирное. Для получения местного времени необходимо прибавить поправку, которая в Fedje равна 1 ч.

Смотрите также архив погоды в соседних городах и на ближайших метеорологических станциях:

Погода в Takle (Норвегия) (45 км)
Погода в Bergen (Норвегия) (56 км)
Погода в Furuneset (Норвегия) (59 км)
Погода в Fossmark (Норвегия) (62 км)
Погода в Modalen III (Норвегия) (68 км)
Погода в Evanger (Норвегия) (77 км)
Погода в Kvamskogen (Норвегия) (82 км)
Погода в Bulken (Норвегия) (83 км)
Погода в Ytteroyane Fyr (Норвегия) (88 км)
Погода в Forde Lifthavn (Норвегия) (88 км)

Пояснения к столбцам:

Ветер - указаны скорость ветра в м/с - средняя за 10 мин, порывы в срок и между сроками (в фигурных скобках) и направление, откуда дует ветер: С - северный, СВ - северо-восточный, В - восточный, ЮВ - юго-восточный, Ю - южный, ЮЗ - юго-западный, З - западный, СЗ - северо-западный.
Видимость - горизонтальная дальность видимости в метрах или километрах. При видимости от 1 до 10 км при отсутствии осадков обычно наблюдается дымка, при ухудшении видимости до 1 км и менее - туман. В сухую погоду видимость может ухудшаться дымом, пылью или мглою.
Явления - указаны атмосферные явления, наблюдавшиеся в срок или в последний час перед сроком; фигурными скобками обозначены явления, наблюдавшиеся между сроками (за 1-3 часа до срока); квадратными скобками обозначены град или гололедные отложения с указанием их диаметра в мм.
Облачность - указаны через наклонную черту общая и нижняя облачность в баллах и высота нижней границы облаков в метрах; квадратными скобками обозначены формы облаков: Ci - перистые, Cs - перисто-слоистые, Cc - перисто-кучевые, Ac - высококучевые, As - высокослоистые, Sc - слоисто-кучевые, Ns - слоисто-дождевые, Cu - кучевые, Cb - кучево-дождевые. Подробнее классификацию облаков см. в Атласе облаков (PDF).
T - Температура воздуха - температура, измеренная на высоте 2 м над землей.
Td - Температура точки росы - температура, при понижении до которой содержащийся в воздухе водяной пар достигнет насыщения.
f - Относительная влажность воздуха - влажноcть воздуха, измеренная на высоте 2 м над землей.
Te - Эффективная температура - температура, которую ощущает одетый по сезону человек в тени. Характеристика душности погоды. При расчете учитывается влияние влажности воздуха и скорости ветра на теплоощущения человека.
Tes - Эффективная температура на солнце - температура, которую ощущает человек, с поправкой на солнечный нагрев. Характеристика знойности погоды. Зависит от высоты солнца над горизонтом, облачности и скорости ветра. Ночью, в пасмурную погоду, а также при ветре 12 м/с и более поправка равна нулю.
P - Атмосферное давление - приведенное к уровню моря атмосферное давление.
Po - Атмосферное давление - измеренное на уровне метеостанции атмосферное давление.
Tmin - Минимальная температура - минимум температуры воздуха на высоте 2 м над землей.
Tmax - Максимальная температура - максимум температуры воздуха на высоте 2 м над землей.
R - Количество осадков - Количество выпавших осадков за период времени, мм. При наведении курсора мыши на число - период времени, за который выпало указанное количество осадков.
R24 - Количество осадков - Количество выпавших осадков за 24 часа, мм.
S - Снежный покров - Высота снежного покрова, см. При наведении курсора мыши на число - состояние снежного покрова и степень покрытия местности в баллах.